Location: Crescent
(42.8242°N, 73.7329°W)
Time: 22:19:59
(UTC+00:00)

Vanguard 2 - Pass Details

Date: 09 November 2024
Orbit: 552 x 2909 km, 32.9° (Epoch: 14 December)

Event Time Altitude Azimuth Distance (km) Brightness Sun altitude
Rises 21:43:44 0° 272° (W) 6,141 13.6 -2.0°
Reaches altitude 10° 21:49:28 10° 257° (WSW) 5,429 13.8 -2.9°
Maximum altitude 21:59:13 19° 221° (SW) 4,986 12.6 -4.6°
Drops below altitude 10° 22:09:25 10° 185° (S) 5,654 12.2 -6.4°
Sets 22:15:44 0° 169° (S) 6,473 12.3 -7.5°
